[[{"header":{"parameterUnit":"m.s-1","parameterCategory":1,"la1":30.2991,"la2":30.254,"lo1":-89.0895,"lo2":-89.0444,"dy":0.0017,"dx":0.0017,"nx":28,"ny":28,"refTime":"2024-02-04T03:00:00:Z","depth":0,"parameterNumber":2,"parameterNumberName":"U-component_of_WINDS"},"data":[0,0,0,0,0,0,0,0,0,0,0,0,0,0,0,0,0,0,0,0,0,0,0,0,0,0,0,0,0,0,0,0,0,0,0,0,0,0,0,0,0,0,0,0,0,0,0,0,0,0,0,0,0,0,0,0,0,0,4.1041,4.1042,0,4.1108,4.1109,4.111,4.1068,4.1066,4.1064,4.1062,4.1138,4.1141,4.1145,0,0,0,0,0,0,0,0,0,0,0,0,0,4.0884,4.0887,4.1041,4.1042,4.1043,4.1108,4.1109,4.111,4.1068,4.1066,4.1064,4.1061,4.1136,4.1141,4.1145,0,0,0,0,0,0,0,0,0,0,0,0,0,4.0952,4.0888,4.1041,4.103,4.1029,4.1108,4.1109,4.111,4.1069,4.1066,4.1063,4.106,4.1135,4.114,4.1146,4.1242,0,0,4.1164,4.1166,0,0,0,0,0,0,0,0,4.0949,4.0958,4.103,4.103,4.103,4.1077,4.1081,4.1155,4.107,4.1054,4.1062,4.1059,4.112,4.1127,4.1146,4.1245,4.1248,4.1164,4.1168,4.117,4.1172,0,0,0,0,0,0,0,4.0944,4.0955,4.1068,4.1032,4.1031,4.1024,4.103,4.1095,4.1103,4.1055,4.1052,4.106,4.112,4.1141,4.1148,4.1249,4.1164,4.1169,4.1173,4.1175,4.1436,4.1439,0,0,0,0,0,0,4.0939,4.0951,4.1066,4.107,4.0981,4.1029,4.1036,4.1065,4.1102,4.1105,4.1063,4.1058,4.1132,4.1141,4.115,4.1269,4.117,4.1176,4.1179,4.1433,4.1437,4.144,0,0,0,0,0,0,4.0936,4.095,4.1063,4.101,4.1024,4.1035,4.1068,4.1068,4.1089,4.1108,4.111,4.1083,4.113,4.1142,4.122,4.1271,4.1178,4.1184,4.1428,4.1434,4.1439,4.1504,0,0,0,0,0,0,4.0931,4.0949,4.0983,4.1011,4.1027,4.1129,4.107,4.1071,4.1098,4.1093,4.1127,4.113,4.1129,4.1212,4.1226,4.1277,4.1188,4.1424,4.1431,4.1437,4.1497,4.1511,4.1522,0,0,0,0,0,4.0926,4.0999,4.0985,4.0999,4.1069,4.1132,4.1141,4.1137,4.1102,4.1139,4.1152,4.1129,4.1262,4.122,4.1236,4.1289,4.1421,4.1429,4.1436,4.1492,4.1508,4.1522,0,0,0,0,0,0,4.0978,4.1002,4.0987,4.107,4.1099,4.1125,4.117,4.1153,4.1194,4.1187,4.1182,4.119,4.1272,4.1288,4.1241,4.1386,4.1337,4.1348,4.1373,4.1389,4.1401,4.1397,4.1193,0,0,0,0,0,4.0998,4.1045,4.1065,4.1137,4.1152,4.1159,4.1186,4.118,4.121,4.1223,4.1241,4.1274,4.1324,4.1357,4.1403,4.1498,4.1508,4.1543,4.1556,4.1566,4.1577,4.1634,4.1651,4.1466,4.1466,4.1466,0,0,4.1043,4.1062,4.1092,4.1148,4.1169,4.1221,4.1169,4.1225,4.1265,4.1232,4.1307,4.1322,4.1359,4.1447,4.1487,4.1463,4.163,4.1576,4.1584,4.1589,4.1644,4.1661,4.1677,4.1471,4.147,4.1469,0,0,4.115,4.1167,4.1231,4.1254,4.1288,4.1292,4.1308,4.1337,4.1345,4.142,4.1398,4.1446,4.153,4.1559,4.1584,4.1706,4.1689,4.1721,4.1787,4.1842,4.1857,4.187,4.1918,4.1935,4.1731,4.1731,4.1732,0,4.1201,4.1276,4.1267,4.1325,4.1353,4.1324,4.1392,4.1415,4.1463,4.1484,4.1455,4.1563,4.1585,4.1683,4.1713,4.1732,4.1754,4.1718,4.1855,4.1868,4.188,4.1926,4.1944,4.1735,4.1735,4.1735,4.1734,0,4.134,4.1392,4.144,4.1487,4.1519,4.1582,4.1585,4.162,4.1612,4.162,4.17,4.1726,4.1779,4.1801,4.1793,4.1899,4.1883,4.1855,4.1806,4.1902,4.1946,4.1963,4.1741,4.174,4.1739,4.1738,0,0,4.1482,4.1524,4.1542,4.1565,4.1601,4.1643,4.1706,4.1757,4.1789,4.1823,4.1879,4.1952,4.1927,4.1956,4.1952,4.2,4.2101,4.1967,4.1968,4.1995,4.2225,4.2248,4.2268,4.2088,4.2092,4.2094,4.2223,0,4.1595,4.1704,4.1699,4.1802,4.1853,4.1828,4.1884,4.1914,4.1924,4.1972,4.1984,4.2038,4.1998,4.2017,4.2063,4.2079,4.2148,4.2069,4.2145,4.2148,4.214,4.229,4.2315,4.2435,4.2239,4.2242,4.2244,0,4.1741,4.1781,4.1889,4.1921,4.1942,4.1992,4.2041,4.2085,4.212,4.2125,4.2158,4.2147,4.2216,4.2162,4.2259,4.2205,4.2236,4.2249,4.2254,4.2264,4.2204,4.2308,4.2472,4.2492,4.227,4.2268,4.2266,0,4.184,4.192,4.1996,4.2016,4.2054,4.2091,4.2109,4.214,4.2173,4.2216,4.2238,4.2288,4.2317,4.2358,4.2363,4.2322,4.2462,4.2407,4.2472,4.2472,4.2504,4.2503,4.268,4.2518,4.2518,4.2517,4.2517,0,4.1969,4.2037,4.2042,4.2089,4.2166,4.2161,4.2238,4.2253,4.2283,4.2335,4.2316,4.2366,4.2367,4.242,4.2424,4.2506,4.2518,4.2527,4.2528,4.2531,4.2531,4.2554,4.2547,4.2522,4.2521,4.252,4.2519,0,4.2093,4.2098,4.218,4.221,4.2219,4.2276,4.2303,4.235,4.2358,4.2426,4.2441,4.2456,4.2518,4.2525,4.2596,4.2599,4.27,4.269,4.2688,4.2688,4.2753,4.2749,4.2954,4.2983,4.2798,4.28,4.2801,0,4.2177,4.2229,4.2265,4.2298,4.2318,4.2371,4.2405,4.2402,4.2438,4.2484,4.2527,4.2586,4.2633,4.2733,4.2752,4.2808,4.2802,4.287,4.281,4.2813,4.2809,4.2807,4.2814,4.2883,4.2885,4.2887,4.2888,0,4.2327,4.2327,4.2374,4.2424,4.2464,4.2503,4.254,4.2569,4.2572,4.2614,4.2675,4.2712,4.2785,4.2846,4.2902,4.2924,4.2909,4.2906,4.2925,4.293,4.2929,4.2935,4.2724,4.2902,4.2901,4.29,4.2899,4.2898,4.2436,4.2483,4.2517,4.2572,4.2599,4.2635,4.2681,4.2696,4.2747,4.2806,4.2802,4.2872,4.291,4.2983,4.3009,4.3065,4.3043,4.3069,4.3076,4.3084,4.3093,4.2917,4.3075,4.3075,4.3074,4.3074,4.3074,0,4.2589,4.261,4.266,4.2712,4.2757,4.2735,4.2776,4.2815,4.2876,4.2912,4.2959,4.3033,4.3092,4.3116,4.3176,4.3217,4.3212,4.3233,4.3232,4.3238,4.3106,4.3087,4.3236,4.3236,4.3236,4.3236,4.3236,4.3236,4.2674,4.2754,4.2759,4.2854,4.2874,4.2941,4.2967,4.3001,4.303,4.3113,4.3161,4.3176,4.3209,4.3271,4.3326,4.3332,4.3357,4.3382,4.3386,4.3263,4.3247,4.3231,4.3213,4.3387,4.3387,4.3513,4.3514,4.3515]},{"header":{"parameterUnit":"m.s-1","parameterCategory":1,"la1":30.2991,"la2":30.254,"lo1":-89.0895,"lo2":-89.0444,"dy":0.0017,"dx":0.0017,"nx":28,"ny":28,"refTime":"2024-02-04T03:00:00:Z","depth":0,"parameterNumber":3,"parameterNumberName":"V-component_of_WINDS"},"data":[0,0,0,0,0,0,0,0,0,0,0,0,0,0,0,0,0,0,0,0,0,0,0,0,0,0,0,0,0,0,0,0,0,0,0,0,0,0,0,0,0,0,0,0,0,0,0,0,0,0,0,0,0,0,0,0,0,0,1.3002,1.3003,0,1.3092,1.3093,1.3094,1.3056,1.3054,1.3052,1.305,1.3142,1.3147,1.3151,0,0,0,0,0,0,0,0,0,0,0,0,0,1.2798,1.2802,1.3002,1.3003,1.3004,1.3092,1.3093,1.3094,1.3057,1.3054,1.3051,1.3049,1.3141,1.3146,1.3152,0,0,0,0,0,0,0,0,0,0,0,0,0,1.2887,1.2804,1.3002,1.2996,1.2996,1.3091,1.3093,1.3095,1.3057,1.3054,1.3051,1.3048,1.3139,1.3146,1.3152,1.3258,0,0,1.3173,1.3176,0,0,0,0,0,0,0,0,1.2882,1.2895,1.2996,1.2997,1.2997,1.306,1.3055,1.315,1.3058,1.3034,1.305,1.3046,1.3117,1.3126,1.315,1.3263,1.3267,1.3173,1.3177,1.318,1.3182,0,0,0,0,0,0,0,1.2876,1.2891,1.3038,1.2997,1.2998,1.2989,1.2998,1.3073,1.3093,1.3036,1.3033,1.3045,1.3117,1.3143,1.3152,1.3268,1.3173,1.3179,1.3183,1.3186,1.3471,1.3474,0,0,0,0,0,0,1.287,1.2886,1.3035,1.304,1.2931,1.2995,1.3006,1.3043,1.3092,1.3096,1.3047,1.3042,1.3133,1.3144,1.3155,1.328,1.318,1.3187,1.319,1.3467,1.3471,1.3475,0,0,0,0,0,0,1.2866,1.2884,1.3031,1.2963,1.2981,1.3002,1.3045,1.3046,1.3072,1.31,1.3104,1.307,1.3131,1.3145,1.3232,1.3283,1.319,1.3196,1.3463,1.3468,1.3473,1.3533,0,0,0,0,0,0,1.286,1.2882,1.2923,1.2964,1.2984,1.3108,1.3048,1.305,1.3084,1.3079,1.3123,1.3127,1.313,1.3223,1.3239,1.329,1.3201,1.3458,1.3465,1.3472,1.3527,1.354,1.3551,0,0,0,0,0,1.2853,1.2937,1.2925,1.2943,1.3035,1.3111,1.3122,1.3124,1.3088,1.3129,1.3147,1.3126,1.3275,1.3232,1.325,1.3304,1.3455,1.3463,1.3471,1.3521,1.3537,1.3551,0,0,0,0,0,0,1.2902,1.2942,1.2929,1.3029,1.3067,1.3104,1.3155,1.3141,1.3189,1.3182,1.3182,1.3193,1.3282,1.3302,1.3253,1.3409,1.336,1.3372,1.3392,1.3407,1.3419,1.3411,1.3206,0,0,0,0,0,1.2924,1.2981,1.3014,1.3098,1.3118,1.3134,1.3166,1.3164,1.3203,1.3219,1.3243,1.3282,1.3337,1.3374,1.3427,1.353,1.3538,1.3577,1.3589,1.3599,1.3608,1.3662,1.3679,1.3501,1.3501,1.3501,0,0,1.297,1.3,1.3036,1.3109,1.3138,1.3196,1.3147,1.3212,1.3256,1.3229,1.3311,1.3331,1.3374,1.3469,1.3513,1.3489,1.3659,1.3609,1.3616,1.3621,1.3672,1.3689,1.3704,1.3507,1.3506,1.3505,0,0,1.3085,1.3114,1.3186,1.3216,1.326,1.327,1.3287,1.3327,1.3339,1.3422,1.3403,1.3455,1.3551,1.3582,1.361,1.3736,1.3718,1.3754,1.3816,1.3869,1.3883,1.3896,1.3938,1.3954,1.3764,1.3764,1.3764,0,1.3137,1.3225,1.3225,1.3291,1.3323,1.3302,1.3375,1.3404,1.3463,1.3486,1.3459,1.3578,1.3606,1.3707,1.3737,1.3762,1.3781,1.3747,1.3881,1.3894,1.3905,1.3946,1.3962,1.3768,1.3767,1.3767,1.3766,0,1.3286,1.3347,1.3401,1.3457,1.3496,1.3565,1.3576,1.3615,1.361,1.3622,1.3707,1.374,1.3797,1.3822,1.3818,1.3923,1.3906,1.3881,1.3831,1.3926,1.3964,1.398,1.3773,1.3772,1.3771,1.377,0,0,1.3431,1.3488,1.3507,1.3532,1.3579,1.3627,1.3695,1.3752,1.3784,1.3826,1.3882,1.3964,1.394,1.3972,1.3972,1.4019,1.4113,1.3987,1.3988,1.4007,1.4228,1.4245,1.4263,1.4102,1.4105,1.4108,1.4223,0,1.3547,1.3666,1.3669,1.3778,1.3833,1.3814,1.3873,1.3908,1.3922,1.3972,1.3987,1.4044,1.401,1.4029,1.4074,1.4092,1.4157,1.4084,1.4153,1.4155,1.414,1.4283,1.4302,1.4409,1.4239,1.4241,1.4243,0,1.3698,1.3743,1.3858,1.3896,1.3919,1.3973,1.4024,1.4072,1.4111,1.4118,1.4154,1.4146,1.4215,1.4165,1.4259,1.421,1.4238,1.4251,1.4256,1.426,1.4203,1.4289,1.4444,1.4459,1.4267,1.4265,1.4263,0,1.3789,1.388,1.3959,1.3982,1.4029,1.4066,1.4088,1.4124,1.4157,1.4203,1.4224,1.4277,1.4306,1.4347,1.4353,1.4317,1.4447,1.4398,1.4453,1.4453,1.4479,1.4477,1.4638,1.4503,1.4502,1.4502,1.4502,0,1.3916,1.3986,1.4001,1.4049,1.4127,1.413,1.4207,1.4225,1.4258,1.4309,1.4297,1.4346,1.4352,1.4403,1.4408,1.4484,1.4498,1.4504,1.4504,1.4504,1.4503,1.4521,1.4512,1.4506,1.4505,1.4505,1.4504,0,1.403,1.4043,1.4128,1.4166,1.4177,1.4232,1.4264,1.4311,1.4324,1.4389,1.4404,1.4425,1.4483,1.4494,1.4564,1.4567,1.4657,1.4651,1.4643,1.4642,1.4695,1.4688,1.4871,1.4894,1.4746,1.4747,1.4748,0,1.4109,1.4162,1.4206,1.4239,1.4262,1.4317,1.4351,1.4356,1.4392,1.444,1.448,1.4538,1.4583,1.4677,1.4698,1.475,1.4744,1.4804,1.4752,1.4749,1.4742,1.4737,1.4741,1.4813,1.4815,1.4816,1.4817,0,1.4247,1.4251,1.43,1.4351,1.4392,1.4433,1.4472,1.45,1.451,1.4551,1.4611,1.4646,1.4717,1.4773,1.4825,1.4847,1.4833,1.4834,1.4849,1.4848,1.484,1.4842,1.4668,1.4829,1.4828,1.4827,1.4827,1.4826,1.4344,1.439,1.4427,1.4482,1.4512,1.4548,1.4593,1.4612,1.4661,1.4718,1.4719,1.4783,1.4821,1.489,1.4915,1.4965,1.4946,1.4968,1.4973,1.4978,1.4982,1.4834,1.4975,1.4975,1.4974,1.4974,1.4974,0,1.4478,1.4502,1.4552,1.4607,1.465,1.4635,1.4677,1.4714,1.4771,1.4807,1.4852,1.492,1.4974,1.4999,1.5053,1.5088,1.5083,1.5101,1.5097,1.5102,1.4997,1.4977,1.5104,1.5104,1.5104,1.5104,1.5104,1.5104,1.4553,1.4629,1.4637,1.4728,1.475,1.4813,1.4838,1.4872,1.49,1.4976,1.5021,1.5038,1.5069,1.5125,1.5174,1.518,1.5199,1.522,1.5222,1.5123,1.511,1.5097,1.5078,1.5224,1.5225,1.5323,1.5324,1.5324]}]]